Regional Weather Roundup
Issued by NWS

Home | Current Version | Previous Version | Text Only | Print | Product List | Glossary Off
Versions: 1 2 3 4 5 6 7 8 9 10 11 12 13 14 15 16 17 18 19 20 21 22 23 24 25 26 27 28 29 30 31 32 33 34 35 36 37 38 39 40 41 42 43 44 45 46 47 48 49 50

959
ASUS43 KIND 241109
RWRIN

WEATHER ROUNDUP FOR INDIANA
NATIONAL WEATHER SERVICE INDIANAPOLIS IN
700 AM EDT TUE APR 24 2018

NOTE: "FAIR" INDICATES FEW OR NO CLOUDS BELOW 12,000 FEET WITH NO
SIGNIFICANT WEATHER AND/OR OBSTRUCTIONS TO VISIBILITY.

* - STATION DOES NOT REPORT WEATHER SUCH AS PRECIPITATION OR FOG.

+ - STATION NOT QUALITY CONTROLLED BY THE NATIONAL WEATHER SERVICE.
    USE DATA WITH CAUTION...ESPECIALLY DEWPOINT AND RELATIVE
    HUMIDITY OBSERVATIONS.

INZ001>003-010>013-019-020-241200-
NORTHWEST INDIANA

CITY           SKY/WX    TMP DP  RH WIND       PRES   REMARKS
GARY /AIRPORT/ CLOUDY    43  39  87 NE3       30.06S
KNOX *+        CLOUDY    50  46  87 NE5       30.03F
LA PORTE +     CLOUDY    50  47  90 E7        30.04F
MICHIGAN CITY+ CLOUDY    50  46  87 CALM      30.06R
MONTICELLO +   CLOUDY    50  49  95 NE6       30.01F
RENSSELAER +   CLOUDY    50  45  81 NE8       30.02F
VALPARAISO     CLOUDY    50  47  89 NE5       30.04S

$$

LMZ046-743>745-241200-
SOUTHERN LAKE MICHIGAN

STATION/POSITION TIME  TEMP    WIND        PRES    WAVE
                       AIR SEA DIR/SP/G            HT
                 (UTC) (F)     (DEG/KT/KT) (MB)    (FT)
BURNS HARBOR     1040   43      70/  5/  6 1018.3S
MICHIGAN CITY    1040   44      30/  5/  6   N/A

$$

INZ004-005-014>016-021>024-241200-
NORTH CENTRAL INDIANA

CITY           SKY/WX    TMP DP  RH WIND       PRES   REMARKS
ELKHART        CLOUDY    52  46  82 E7        30.06
GOSHEN         CLOUDY    51  49  92 NE6       30.05S
LOGANSPORT +   CLOUDY    50  46  87 NE5       30.02F
ROCHESTER +    CLOUDY    52  50  93 NE5       30.03F
SOUTH BEND     CLOUDY    51  46  83 E6        30.06S
WARSAW +       CLOUDY    50  48  93 E5        30.04S

$$

INZ006>009-017-018-025>027-241200-
NORTHEAST INDIANA

CITY           SKY/WX    TMP DP  RH WIND       PRES   REMARKS
ANGOLA *+      CLOUDY    52  48  87 E8        30.06S
AUBURN +       CLOUDY    50  48  93 E6        30.06S
FORT WAYNE     CLOUDY    52  49  89 E9        30.04S
HUNTINGTON +   CLOUDY    50  49  95 E5        30.03R

$$

INZ028-029-035-036-043>045-051>053-241200-
WEST CENTRAL INDIANA

CITY           SKY/WX    TMP DP  RH WIND       PRES   REMARKS
CRAWFORDSVL +  CLOUDY    49  49 100 N5        29.99S
GREENCASTLE +  CLOUDY    50  46  87 NE6       29.98R
LAFAYETTE      CLOUDY    51  49  92 NE9       30.00F
TERRE HAUTE    CLOUDY    53  51  93 NE5       29.97S

$$

INZ030>032-037>040-046>048-054>057-064-065-241200-
CENTRAL INDIANA

CITY           SKY/WX    TMP DP  RH WIND       PRES   REMARKS
COLUMBUS       CLOUDY    50 N/A N/A NE5       29.97
FISHERS *+     CLOUDY    50  50 100 NE3       29.99R
FRANKFORT +    DRIZZLE   53  51  93 NE7       30.01S
GREENWOOD *+   CLOUDY    50  49  97 E6        29.98S
INDIANAPOLIS   LGT RAIN  51  50  96 E7        29.98R FOG
-EAGLE CREEK   CLOUDY    53  48  83 E7        29.97S
KOKOMO +       CLOUDY    50  49  96 NE8       30.02S
MARION +       CLOUDY    50  48  92 E7        30.01S
MT COMFORT *+  CLOUDY    50  50 100 E7        29.99S
SHELBYVILLE    LGT RAIN  52  49  89 NE10      29.97R
ZIONSVILLE +   CLOUDY    49  48  97 NE6       29.99S

$$

INZ033-034-041-042-049-050-058-059-241200-
EAST CENTRAL INDIANA

CITY           SKY/WX    TMP DP  RH WIND       PRES   REMARKS
MUNCIE         LGT RAIN  52  49  89 E9        30.01R FOG
RICHMOND +     LGT RAIN  48  48 100 E12       29.99S

$$

INZ060-061-067>069-081>083-085>088-241200-
SOUTHWEST INDIANA

CITY           SKY/WX    TMP DP  RH WIND       PRES   REMARKS
EVANSVILLE     CLOUDY    55  54  96 N6        29.93S
HUNTINGBURG +  LGT RAIN  53  52  96 N6        29.93R
WASHINGTON +   DRIZZLE   53  51  94 NE5       29.94S

$$

INZ062-063-066-070>080-084-089>092-241200-
SOUTH CENTRAL AND SOUTHEAST INDIANA

CITY           SKY/WX    TMP DP  RH WIND       PRES   REMARKS
BATESVILLE +   MOCLDY    50  50 100 MISG      29.97R
BEDFORD +      DRIZZLE   52  48  87 NE3       29.93F
BLOOMINGTON    LGT RAIN  52  50  93 NE5       29.95S FOG
FRENCH LICK *+ CLOUDY    52 N/A N/A CALM      29.93S
MADISON *+     CLOUDY    52  50  93 NE8       29.96R
NORTH VERNON + RAIN      50  48  93 E6        29.96R
SEYMOUR +      CLOUDY    54  52  94 NE5       29.95S

$$





USA.gov is the U.S. government's official web portal to all federal, state and local government web resources and services.